Regional Weather Roundup
Issued by NWS

Home | Current Version | Previous Version | Graphics & Text | Print | Product List | Glossary On
Versions: 1 2 3 4 5 6 7 8 9 10 11 12 13 14 15 16 17 18 19 20 21 22 23 24 25 26 27 28 29 30 31 32 33 34 35 36 37 38 39 40 41 42 43 44 45 46 47 48 49 50
000
ASUS43 KLMK 261802
RWRKY
KENTUCKY REGIONAL WEATHER ROUNDUP
NATIONAL WEATHER SERVICE LOUISVILLE KY
200 PM EDT FRI AUG 26 2016

NOTE "FAIR" INDICATES FEW OR NO CLOUDS BELOW 12,000 FEET
WITH NO SIGNIFICANT WEATHER AND/OR OBSTRUCTIONS TO VISIBILITY.

KYZ001>023-026-027-061>063-070>075-261900-
WESTERN AND SOUTH CENTRAL KENTUCKY

CITY           SKY/WX    TMP DP  RH WIND       PRES   REMARKS
PADUCAH        MOSUNNY   89  75  63 SE5       30.07F HX  99
HENDERSON      MOSUNNY   90  73  58 E5        30.07F HX  98
OWENSBORO      CLOUDY    90  76  63 E3        30.10F HX 101
HOPKINSVILLE   CLOUDY    89  72  56 N3        30.08F HX  97
BOWLING GREEN  CLOUDY    91  73  55 E6        30.11F HX  99
GLASGOW        SUNNY     90  72  55 CALM      30.12F HX  97
$$

KYZ024-025-028>034-038-045-046-053-261900-
NORTH CENTRAL KENTUCKY

CITY           SKY/WX    TMP DP  RH WIND       PRES   REMARKS
LOUISVILLE/SDF PTSUNNY   89  68  49 SE5       30.11F HX  93
LOUISVILLE/LOU SUNNY     91  67  44 S5        30.11F HX  94
FORT KNOX      PTSUNNY   89  72  57 E6        30.11F HX  96
$$

KYZ035>037-039>044-047>052-055>060-089>105-261900-
NORTHEAST KENTUCKY

CITY           SKY/WX    TMP DP  RH WIND       PRES   REMARKS
LEXINGTON      SUNNY     91  66  43 SW3       30.14F HX  93
COVINGTON      MOSUNNY   88  73  61 CALM      30.13F HX  95
FRANKFORT      MOSUNNY   91  68  46 CALM      30.13F HX  95
$$

KYZ054-064>069-076>088-106>120-261900-
SOUTHEAST KENTUCKY

CITY           SKY/WX    TMP DP  RH WIND       PRES   REMARKS
JACKSON        SUNNY     87  71  58 VRB3      30.18F HX  93
LONDON         MOSUNNY   88  68  51 SE5       30.16F HX  91
SOMERSET       SUNNY     88  70  55 CALM      30.15F HX  92
MIDDLESBORO    SUNNY     89  71  54 N6        30.15F HX  95
MONTICELLO     CLEAR    N/A N/A N/A N16       30.16F
$$





USA.gov is the U.S. government's official web portal to all federal, state and local government web resources and services.